Погода в Глостере

Великобритания     51°51′30″N   2°15′02″W
темп.,
°C
ветер,
м/с
пор.,
м/с
влажн.,
%
обл.,
%
осадки,
мм/ч
давл.,
гПа
погр.,
м
5 августа, чт
чт501:00+12ююз3493100 0.1 101066
04:00+12ю359661 0.0 1008106
07:00+12ююв3109369 0.0 1007398
10:00+16ю71180100 0.1 1004907
13:00+15ююв71389100 1.0 1002871
16:00+16ююв7129585 1.9 998809
19:00+17ю5990100 9.9 996740
22:00+14ююз499630 2.4 996251
6 августа, пт
пт601:00+14ююз5109868 2.4 996398
04:00+14ююз51195100 0.1 995534
07:00+15юз6129343 0.3 995690
10:00+16зюз8128745 0.6 997966
13:00+18зюз9137268 2.1 9981453
16:00+18зюз10136722 0.6 9991563
19:00+16зюз812783 0.8 9991150
22:00+13юз6138622 0.1 1000660
7 августа, сб
сб701:00+12ююз5129540 0.1 1000495
04:00+11ююз4119734 0.0 999370
07:00+12ю3109650 0.0 998445
10:00+17ююз687291 0.0 9971079
13:00+16ююз5776100 0.3 997845
16:00+18юз676594 0.1 9971220
19:00+16юз61084100 0.4 997733
22:00+14юз4109552 0.9 998326
8 августа, вс
вс801:00+14зюз5109459 0.9 1000439
04:00+13зюз6129198 0.0 1001643
07:00+13зюз7129093 0.1 1002776
10:00+14зюз7118375 0.1 1005866
13:00+18зюз8116378 0.3 10061652
16:00+18зюз810617 0.1 10081611
19:00+16зюз710706 0.1 1010979
22:00+12юз411855 0.0 1012265
9 августа, пн
пн901:00+12юз4109639 0.0 1013267
04:00+11ююз399822 0.0 1013211
07:00+13ююз389884 0.0 1014286
10:00+18зюз577380 0.1 1015853
13:00+21зюз785888 0.3 10161829
16:00+20зюз786246 0.2 10171423
19:00+18зюз687477 0.3 1018787
22:00+14зюз41094100 0.0 1020301